This is the latest recevied weather packets stored in our database for station/object PA3CPS. If no packets are shown the sender has not sent any weather packets the latest 10 day(s).
| Time | Temp. | Humidity | Pressure | Rain* | Wind** | Luminosity | Snow |
|---|---|---|---|---|---|---|---|
| 1778004066 | 11.11° C | 84% | 1009.1 hPa | 0 mm | - | 25 W/m² | - |
| 1778003763 | 11.11° C | 84% | 1009.1 hPa | 0 mm | - | 26 W/m² | - |
| 1778003463 | 11.11° C | 84% | 1009.3 hPa | 0 mm | - | 23 W/m² | - |
| 1778003162 | 11.11° C | 84% | 1009.2 hPa | 0 mm | - | 21 W/m² | - |
| 1778002863 | 11.11° C | 84% | 1009.3 hPa | 0 mm | - | 25 W/m² | - |
| 1778002562 | 11.67° C | 84% | 1009.3 hPa | 0 mm | - | 25 W/m² | - |
| 1778002262 | 11.67° C | 84% | 1009.1 hPa | 0 mm | - | 26 W/m² | - |
| 1778001963 | 11.67° C | 83% | 1009.2 hPa | 0 mm | - | 35 W/m² | - |
| 1778001662 | 11.67° C | 83% | 1009.2 hPa | 0 mm | - | 44 W/m² | - |
| 1778001362 | 11.67° C | 83% | 1009.1 hPa | 0 mm | - | 46 W/m² | - |
| 1778001061 | 11.67° C | 83% | 1009.3 hPa | 0 mm | - | 62 W/m² | - |
| 1778000763 | 11.67° C | 83% | 1009.3 hPa | 0 mm | - | 74 W/m² | - |
| 1778000462 | 11.67° C | 83% | 1009.3 hPa | 0 mm | - | 90 W/m² | - |
| 1778000162 | 11.67° C | 83% | 1009.3 hPa | 0 mm | - | 90 W/m² | - |
| 1777999862 | 11.67° C | 83% | 1009.4 hPa | 0 mm | - | 90 W/m² | - |
| 1777999562 | 11.67° C | 83% | 1009.5 hPa | 0 mm | - | 104 W/m² | - |
| 1777999263 | 11.67° C | 83% | 1009.6 hPa | 0 mm | - | 118 W/m² | - |
| 1777998962 | 11.67° C | 83% | 1009.5 hPa | 0 mm | - | 97 W/m² | - |
| 1777998663 | 11.67° C | 83% | 1009.5 hPa | 0 mm | - | 84 W/m² | - |
| 1777998363 | 11.67° C | 83% | 1009.5 hPa | 0 mm | - | 98 W/m² | - |
| 1777998062 | 11.67° C | 83% | 1009.5 hPa | 0 mm | - | 93 W/m² | - |
| 1777997762 | 11.67° C | 83% | 1009.4 hPa | 0 mm | - | 104 W/m² | - |
| 1777997462 | 11.67° C | 83% | 1009.5 hPa | 0 mm | - | 113 W/m² | - |
| 1777997162 | 11.67° C | 83% | 1009.5 hPa | 0 mm | - | 104 W/m² | - |
| 1777996863 | 11.67° C | 83% | 1009.6 hPa | 0 mm | - | 100 W/m² | - |
* Rain latest hour (hover to see other rain measurements)
** Current wind speed in m/s (hover to see current wind gust speed)